Ohio State University, OH

7:54 AM EDT on May 24, 2017 (GMT -0400)
Ohio State University

Weather History for KOSU - October, 2011

Change the Weather History Date:

Wednesday, October 26, 2011

  Actual Average Record
Temperature  
Mean Temperature 60 °F -  
Max Temperature 70 °F 58 °F 77 °F (2010)
Min Temperature 51 °F 39 °F 28 °F (2006)
Degree Days  
Heating Degree Days 5    
Growing Degree Days 10 (Base 50)    
Moisture  
Dew Point 49 °F    
Average Humidity 72    
Maximum Humidity 94    
Minimum Humidity 49    
Precipitation  
Precipitation 0.16 in - - ()
Sea Level Pressure  
Sea Level Pressure 29.82 in    
Wind  
Wind Speed 8 mph (SW)    
Max Wind Speed 16 mph    
Max Gust Speed 23 mph    
Visibility 9 miles    
Events Rain , Thunderstorm    
Averages and records for this station are not official NWS values.
T = Trace of Precipitation, MM = Missing Value Source: NWS Daily Summary

Daily Weather History Graph

Daily Weather History Graph

Search for Another Location

Airport or City:

Trip Planner

Search our weather history database for the weather conditions in past years. The results will help you decide how hot, cold, wet, or windy it might be!

Date:

Astronomy

Oct. 26, 2011 Rise Set
Actual Time 7:54 AM EDT 6:37 PM EDT
Civil Twilight 7:26 AM EDT 7:05 PM EDT
Nautical Twilight 6:54 AM EDT 7:36 PM EDT
Astronomical Twilight 6:23 AM EDT 8:08 PM EDT
Moon 7:40 AM EDT (10/26) 6:19 PM EDT (10/26)
Length of Visible Light 11h 38m
Length of Day
10h 43m
Waning Crescent, 0% of the Moon is Illuminated
Oct 26
Waning Crescent
Oct 26
New
Nov 2
First Quarter
Nov 10
Full
Nov 18
Last Quarter

Hourly Weather History & Observations

Time (EDT) Temp. Dew Point Humidity Pressure Visibility Wind Dir Wind Speed Gust Speed Precip Events Conditions
12:53 AM 57.0 °F 39.9 °F 53% 29.91 in 10.0 mi South 8.1 mph - N/A   Clear
1:53 AM 57.0 °F 39.0 °F 51% 29.89 in 10.0 mi South 8.1 mph - N/A   Partly Cloudy
2:53 AM 57.0 °F 39.0 °F 51% 29.88 in 10.0 mi South 5.8 mph - N/A   Clear
3:53 AM 57.9 °F 39.0 °F 49% 29.86 in 10.0 mi South 9.2 mph - N/A   Mostly Cloudy
4:15 AM 57.2 °F 42.8 °F 59% 29.86 in 10.0 mi SSW 4.6 mph - 0.00 in Rain , Thunderstorm Light Rain
4:40 AM 53.6 °F 46.4 °F 77% 29.88 in 10.0 mi NNE 8.1 mph - 0.01 in Rain Light Rain
4:50 AM 51.8 °F 46.4 °F 82% 29.88 in 10.0 mi Calm Calm - 0.01 in Thunderstorm Overcast
4:53 AM 52.0 °F 46.0 °F 80% 29.87 in 10.0 mi NE 5.8 mph - 0.01 in Rain , Thunderstorm Light Rain
5:05 AM 53.6 °F 46.4 °F 77% 29.86 in 10.0 mi ESE 5.8 mph - 0.00 in Rain Light Rain
5:25 AM 51.8 °F 46.4 °F 82% 29.85 in 10.0 mi ESE 4.6 mph - 0.00 in Rain , Thunderstorm Light Rain
5:53 AM 52.0 °F 48.0 °F 86% 29.89 in 8.0 mi NE 3.5 mph - 0.08 in Rain , Thunderstorm Rain
6:45 AM 51.8 °F 48.2 °F 88% 29.87 in 10.0 mi East 5.8 mph - 0.09 in   Overcast
8:53 AM 55.9 °F 48.9 °F 77% 29.86 in 10.0 mi South 4.6 mph - N/A   Overcast
9:53 AM 57.0 °F 48.0 °F 72% 29.86 in 10.0 mi South 5.8 mph - N/A   Overcast
11:53 AM 64.9 °F 50.0 °F 58% 29.84 in 10.0 mi SW 12.7 mph 19.6 mph N/A   Mostly Cloudy
12:53 PM 68.0 °F 51.1 °F 55% 29.81 in 10.0 mi WSW 12.7 mph - N/A   Partly Cloudy
1:53 PM 68.0 °F 52.0 °F 56% 29.79 in 10.0 mi SW 15.0 mph 23.0 mph N/A   Mostly Cloudy
2:53 PM 69.1 °F 53.1 °F 57% 29.77 in 10.0 mi SW 12.7 mph - N/A   Mostly Cloudy
3:53 PM 69.1 °F 53.1 °F 57% 29.76 in 10.0 mi WSW 10.4 mph - N/A   Overcast
4:53 PM 68.0 °F 54.0 °F 61% 29.77 in 10.0 mi SSW 9.2 mph - N/A   Overcast
5:53 PM 66.9 °F 54.0 °F 63% 29.76 in 10.0 mi SW 6.9 mph - N/A   Overcast
6:53 PM 66.0 °F 54.0 °F 65% 29.76 in 10.0 mi SW 6.9 mph - 0.00 in   Overcast
7:53 PM 64.0 °F 55.9 °F 75% 29.77 in 10.0 mi SW 9.2 mph - 0.01 in   Overcast
8:53 PM 62.1 °F 55.0 °F 78% 29.75 in 10.0 mi SW 10.4 mph - 0.01 in   Overcast
9:53 PM 61.0 °F 55.0 °F 81% 29.75 in 10.0 mi SW 10.4 mph - N/A   Overcast
10:43 PM 53.6 °F 51.8 °F 94% 29.79 in 3.0 mi NNW 16.1 mph 23.0 mph 0.01 in Rain Light Rain
10:53 PM 54.0 °F 52.0 °F 93% 29.80 in 3.0 mi NNW 11.5 mph - 0.02 in Rain Light Rain
11:03 PM 53.6 °F 51.8 °F 94% 29.80 in 3.0 mi NNW 11.5 mph 19.6 mph 0.01 in Rain Light Rain
11:22 PM 51.8 °F 50.0 °F 94% 29.80 in 4.0 mi NNW 11.5 mph - 0.02 in Rain Light Rain
11:53 PM 51.1 °F 48.9 °F 92% 29.79 in 5.0 mi North 10.4 mph - 0.03 in Rain Light Rain